Home > Weather > Krefeld > Past weeks

Flag for Germany Past Weather in Krefeld, North Rhine-Westphalia, Germany — Yesterday and Last 2 Weeks

Now
70 °F

Clear.


Feels Like: 70 °F
Forecast: 62 / 72 °F
Wind: 10 mph from Northwest

Location: Monchengladbach Airport

Current Time: Jul 29, 2016 at 9:57:56 PM

Latest Report: Jul 29, 2016 at 8:20 PM


Visibility: 10 mi

Pressure: 29.86 "Hg

Humidity: 64%

Dew Point: 57 °F

Location of KrefeldLocation

Past Weather in Krefeld — Graph

°F

Krefeld Temperature Yesterday

Maximum temperature yesterday: 77 °F (at 4:20 PM)
Minimum temperature yesterday: 63 °F (at 7:50 AM)
Average temperature yesterday: 70 °F

High & Low Weather Summary for the Past Weeks

 TemperatureHumidityPressure
High95 °F (Jul 20, 4:50 PM)100% (Jul 24, 7:50 AM)30.30 "Hg (Jul 24, 7:50 AM)
Low54 °F (Jul 15, 6:50 AM)30% (Jul 20, 4:50 PM)29.83 "Hg (Jul 20, 5:20 PM)
Average74 °F64%30.07 "Hg
* Reported Jul 14 8:20 PM — Jul 29 8:20 PM, Krefeld, Weather by CustomWeather, © 2016

Note: Actual official high and low records may vary slightly from our data, if they occured in-between our weather recording intervals... More about our weather records

Advertising

Krefeld Weather History for the Previous 24 Hours

Scroll right to see more
 ConditionsComfort  
Time TempWeatherWind HumidityBarometerVisibility
8:20 PM
Fri, Jul 29
70 °FClear.10 mph64%29.86 "Hg10 mi
7:50 PM72 °FClear.12 mph61%29.86 "Hg10 mi
7:20 PM73 °FPassing clouds.12 mph57%29.86 "HgN/A
6:50 PM73 °FPassing clouds.9 mph57%29.86 "HgN/A
6:20 PM75 °FPassing clouds.7 mph61%29.86 "HgN/A
5:50 PM75 °FPassing clouds.8 mph57%29.86 "HgN/A
5:20 PM75 °FPassing clouds.9 mph65%29.86 "HgN/A
4:50 PM72 °FPassing clouds.8 mph69%29.86 "HgN/A
4:20 PM75 °FPassing clouds.10 mph57%29.86 "HgN/A
3:50 PM73 °FPassing clouds.10 mph65%29.89 "HgN/A
3:20 PM73 °FPassing clouds.7 mph65%29.89 "HgN/A
2:50 PM70 °FPassing clouds.7 mph73%29.89 "HgN/A
2:20 PM68 °FPassing clouds.6 mph83%29.89 "HgN/A
1:50 PM66 °FPartly cloudy.7 mph83%29.89 "HgN/A
1:20 PM70 °FScattered clouds.8 mph73%29.89 "HgN/A
12:50 PM72 °FScattered clouds.8 mph69%29.89 "HgN/A
12:20 PM70 °FPartly sunny.7 mph73%29.89 "HgN/A
11:50 AM68 °FScattered clouds.7 mph83%29.92 "HgN/A
11:20 AM66 °FPartly sunny.6 mph83%29.92 "HgN/A
10:50 AM66 °FPartly sunny.6 mph83%29.92 "HgN/A
10:20 AM64 °FBroken clouds.6 mph94%29.92 "HgN/A
9:50 AM64 °FBroken clouds.7 mph88%29.92 "Hg5 mi
9:20 AM66 °FBroken clouds.6 mph83%29.92 "HgN/A
8:50 AM66 °FScattered clouds.7 mph83%29.92 "HgN/A
8:20 AM64 °FScattered clouds.6 mph83%29.92 "HgN/A
7:50 AM64 °FPassing clouds.6 mph88%29.92 "HgN/A
Weather by CustomWeather, © 2016

See weather overviewHow to use our weather pages